User: anonymous   Login
Location: Unspecified
(0.0000°N, 0.0000°E)
Time: 17:47:23
(UTC+00:00)
Language:

COSMOS 2483 - Orbit

View from above orbital plane
View from above orbital plane
View from above satellite
View from above satellite

Ground track
Ground track

The orbit data is extracted from the following two-line orbital elements,

1 39058U 13001B   18049.74870374 -.00000014 +00000-0 -17319-3 0  9993
2 39058 082.5040 309.6788 0015658 174.7232 185.4013 12.43946993231253
Epoch (UTC): 18 February 2018 17:58:08
Eccentricity: 0.0015658
inclination: 82.5040°
perigee height: 1477 km
apogee height: 1502 km
right ascension of ascending node: 309.6788°
argument of perigee: 174.7232°
revolutions per day: 12.43946993
mean anomaly at epoch: 185.4013°
orbit number at epoch: 23125

The dashed part of the orbit path shows where the satellite is in the earth's shadow,  

DLR